Theta_e
321 321 321 321 321 321 321 320 319 319 318 319 319 319 320 319 319 319 320 320 320 320 321 321 321 322 319 319 318 326 344 338 322 319 318 320 319 319 315 316 317 316 319 320 323 322 319
320 320 320 320 320 319 317 318 318 318 318 318 318 318 319 319 319 319 319 318 318 319 320 321 322 321 318 311 324 325 326 321 321 319 320 322 321 322 318 317 317 320 319 320 323 322 323
319 319 319 317 315 315 315 316 318 318 318 317 317 318 318 318 318 318 318 318 317 318 320 321 323 319 316 315 323 324 320 321 323 322 321 324 324 320 321 317 322 320 315 318 319 321 317
317 316 314 314 313 314 314 315 316 318 318 317 318 318 318 318 318 318 318 318 318 319 321 322 323 317 317 323 325 323 320 321 324 325 324 324 324 321 319 322 320 316 316 310 317 320 319
315 314 313 313 313 314 315 316 317 317 318 318 317 317 317 317 317 318 318 317 318 320 321 322 319 321 315 323 319 323 324 320 321 323 324 324 322 319 319 315 311 314 308 309 313 322 319
315 315 315 315 314 314 315 316 317 317 317 317 317 317 316 316 316 317 316 317 319 317 319 320 319 315 318 315 321 323 326 325 321 322 321 320 318 315 316 313 305 308 308 310 309 318 319
315 315 315 315 314 315 315 316 316 317 317 317 317 316 316 316 317 316 314 318 317 315 314 314 315 317 317 322 324 322 326 323 323 321 314 318 313 311 312 315 314 313 312 310 313 315 317
315 314 314 314 314 315 316 316 316 316 316 316 316 316 316 316 316 316 316 315 315 316 309 316 316 318 320 321 316 320 326 318 318 313 317 315 310 316 316 314 314 313 311 309 312 316 317
315 314 314 314 314 315 316 316 316 316 316 316 315 315 315 315 316 314 313 317 321 320 311 314 316 315 317 320 316 318 322 320 317 314 315 312 314 316 314 314 311 311 311 310 309 316 316
314 314 314 315 315 315 315 315 315 316 315 315 314 314 315 315 311 318 315 321 322 321 307 309 310 315 317 319 315 323 323 320 317 314 315 313 317 313 312 313 312 308 314 312 314 310 303
315 315 314 315 315 315 314 314 315 315 314 314 313 314 314 308 318 314 320 322 322 321 299 311 311 320 318 315 317 318 325 320 314 315 314 311 312 313 312 313 314 310 315 315 313 311 309
315 315 315 315 315 314 314 313 314 314 313 313 313 314 314 315 316 316 321 322 321 305 300 308 312 311 311 315 316 318 318 321 321 316 315 314 319 317 316 315 317 318 315 314 313 310 301
315 314 314 314 314 314 313 313 313 313 313 312 313 313 312 320 317 320 322 319 304 301 313 307 308 310 310 309 313 315 313 313 311 307 308 313 313 316 316 312 316 314 310 303 301 303 301
315 314 314 314 314 314 313 312 312 312 312 312 312 311 313 316 320 320 320 312 302 307 309 313 311 309 306 309 311 313 312 310 315 313 310 307 304 313 317 312 310 310 311 305 298 296 300
314 314 314 314 313 313 313 312 312 312 311 310 310 323 319 324 320 320 315 305 308 310 312 309 310 307 306 309 309 310 311 310 313 315 310 308 308 317 315 315 314 311 307 312 306 309 302
314 314 314 313 313 313 313 312 312 312 311 310 319 321 319 322 322 317 311 304 311 315 315 312 305 308 305 307 307 308 309 314 312 316 321 316 308 315 315 316 317 315 317 306 307 299 297
314 314 314 313 313 313 313 312 312 311 310 309 320 315 322 322 321 313 305 310 313 317 315 311 309 307 308 307 308 307 309 313 315 314 319 317 314 311 315 313 309 309 310 310 310 308 301
313 313 313 313 313 312 312 311 311 310 308 306 321 310 322 320 307 310 307 312 307 314 316 314 314 313 310 309 308 308 308 312 317 316 312 317 316 307 310 317 318 313 309 312 304 303 307
313 313 313 313 313 312 311 311 310 310 308 318 314 314 320 317 303 305 310 311 314 313 315 313 312 315 314 311 308 312 316 320 320 316 317 320 313 305 306 311 317 311 312 311 313 316 309
313 313 313 313 313 312 311 311 310 309 309 315 316 309 314 314 314 313 311 310 310 315 314 316 313 316 313 311 316 312 314 317 320 318 325 332 319 311 304 308 309 307 310 312 311 306 306
313 313 313 313 312 312 312 311 310 309 308 316 317 314 315 305 307 313 316 312 310 310 315 317 315 313 313 311 312 310 314 317 319 319 321 330 312 312 311 311 310 309 309 310 308 309 305
313 313 313 312 312 312 312 311 310 308 307 319 317 318 320 312 312 313 311 312 310 312 315 313 314 315 315 313 314 310 315 317 317 319 321 333 316 314 309 312 311 308 310 311 310 310 310
312 312 312 312 312 312 312 311 310 309 310 320 323 326 320 312 313 310 311 312 312 316 317 319 317 318 313 314 318 318 325 325 327 322 324 326 318 312 305 313 311 305 311 311 311 312 313
312 312 312 312 312 312 312 311 311 310 308 318 319 321 319 310 312 312 312 313 314 315 317 319 321 321 326 329 326 324 323 325 325 322 331 326 324 316 309 311 300 313 318 315 311 313 316
312 312 312 312 312 312 312 312 311 311 309 317 319 317 321 315 315 312 313 313 316 319 318 320 323 330 333 325 317 316 313 319 316 320 322 330 324 311 306 305 308 313 314 313 312 315 321
312 312 311 311 312 312 312 312 311 311 309 315 322 319 320 318 316 320 317 314 313 316 317 320 328 333 332 324 315 310 305 309 310 313 322 324 329 315 310 302 301 314 318 320 319 307 320
312 312 311 310 311 312 313 313 312 311 310 311 321 331 319 317 320 320 316 317 323 319 318 321 325 325 329 320 311 309 307 313 308 309 311 315 317 311 306 305 310 320 320 320 304 311 320
313 312 310 310 310 311 312 312 312 311 310 310 320 326 314 318 319 321 322 320 321 321 319 327 321 324 320 315 311 312 312 312 312 312 307 312 312 310 311 306 304 322 319 312 323 329 324
313 313 310 311 310 310 311 312 312 311 310 309 314 319 320 316 319 324 325 326 325 324 326 332 329 329 326 317 317 312 313 315 311 307 320 310 316 314 314 313 331 325 332 333 333 328 324
Wind_Speed
6 6 6 7 8 7 8 8 9 10 11 11 11 13 13 12 12 12 13 14 14 13 14 15 15 17 13 8 3 6 7 8 9 9 12 17 16 15 13 3 2 7 24 3 21 24 28
6 5 5 6 7 7 8 9 9 10 11 11 11 11 12 12 12 12 13 14 14 12 14 14 13 20 7 12 5 11 12 10 12 12 14 17 15 12 12 7 9 14 17 18 20 19 17
6 5 5 5 5 6 7 8 8 9 10 11 11 11 11 11 12 12 12 13 14 13 14 14 11 7 9 13 5 3 6 10 12 13 15 11 9 14 16 13 23 16 19 19 14 21 13
5 4 3 3 3 4 6 7 8 9 10 10 11 11 11 11 12 13 12 14 14 13 14 14 7 8 8 1 7 6 9 10 9 11 14 13 12 14 14 12 13 10 8 6 9 13 2
4 3 2 1 2 4 6 7 8 9 10 10 10 10 11 11 12 13 13 14 15 15 12 11 7 7 6 2 9 10 11 11 10 13 12 9 10 11 13 15 1 8 10 17 5 11 13
5 3 2 1 1 4 6 8 9 11 11 12 12 12 11 11 12 13 15 11 5 14 8 8 10 9 10 12 6 7 11 10 10 10 11 12 12 11 3 8 9 13 9 24 7 15 11
4 3 1 2 3 4 6 7 9 10 11 12 12 11 10 10 11 11 14 6 7 6 9 11 6 12 10 3 3 8 9 8 11 9 14 16 9 11 25 14 14 13 11 12 17 3 9
4 3 2 3 4 6 7 8 9 10 11 12 12 11 11 10 10 9 8 7 7 6 10 18 17 7 2 9 11 14 12 10 11 14 18 15 3 9 8 6 14 12 12 4 11 3 8
4 3 3 3 5 6 8 10 10 10 10 11 12 10 10 9 8 6 10 14 7 9 7 15 12 11 10 10 12 15 15 17 13 18 20 6 4 4 7 8 3 6 10 4 10 15 22
4 4 4 5 6 7 8 10 11 12 12 12 12 10 7 7 3 7 11 3 6 5 7 14 9 6 15 12 8 15 17 19 13 20 10 1 7 5 3 9 12 3 11 13 23 12 5
5 5 5 6 7 8 9 10 10 11 12 12 12 10 7 5 11 8 7 5 10 2 7 18 14 6 8 13 5 16 15 11 18 13 5 6 0 6 11 3 9 13 11 18 22 16 8
6 6 6 7 8 9 10 11 12 13 13 12 12 8 4 5 7 12 8 7 3 7 6 13 11 12 16 17 14 13 9 15 17 16 9 12 7 9 6 5 10 13 9 2 6 5 3
6 7 7 7 8 9 10 11 12 13 14 13 11 6 5 8 7 3 6 5 6 9 9 12 17 16 16 16 17 15 16 14 11 8 12 5 5 7 3 8 5 9 14 3 2 6 3
6 7 7 8 9 9 10 11 12 13 13 14 10 6 11 8 11 6 7 6 8 11 7 11 13 19 15 15 16 9 11 13 15 15 11 3 5 2 3 5 7 13 7 7 12 12 5
8 8 8 9 9 10 11 12 13 13 14 13 8 5 6 9 10 6 7 10 7 7 6 3 10 15 13 16 8 11 14 15 13 14 3 5 8 3 4 7 7 8 10 9 8 16 6
9 9 9 10 11 12 13 14 14 15 14 12 6 10 10 7 5 5 7 15 12 5 7 9 7 9 11 14 10 11 14 12 9 10 7 15 8 6 5 5 4 7 5 7 6 7 12
8 9 10 11 11 13 14 15 15 16 13 7 5 6 7 7 5 6 9 14 8 7 2 4 9 8 9 8 13 12 8 9 3 1 6 5 4 4 6 3 9 7 4 6 6 5 7
9 10 10 11 11 12 14 15 15 17 19 2 8 7 7 7 7 8 12 17 5 3 8 6 7 11 6 6 10 11 12 9 9 6 7 3 2 4 18 21 13 4 6 8 6 11 9
8 9 10 11 12 13 14 15 15 15 13 6 8 7 5 8 8 10 17 22 5 6 8 8 6 8 4 3 3 11 9 6 7 6 3 3 2 7 5 9 13 5 7 1 3 6 2
8 9 10 11 13 14 14 15 15 14 11 4 7 4 6 7 13 12 13 16 5 10 7 4 8 6 0 6 6 5 12 5 4 2 4 3 4 3 8 10 6 3 5 3 2 4 10
7 7 8 12 14 15 16 17 18 16 12 4 6 6 5 8 11 14 14 13 11 9 9 9 9 13 8 5 7 5 5 10 5 4 2 2 4 11 6 5 5 8 5 5 8 8 5
7 8 11 12 14 15 17 19 21 22 14 5 7 7 8 7 12 13 10 12 16 12 9 10 10 12 14 9 9 8 8 7 8 6 6 1 5 7 11 9 4 8 6 4 4 1 4
7 8 8 10 12 15 17 19 21 25 19 5 9 10 6 6 9 11 11 12 11 7 5 8 12 10 15 14 11 12 12 8 6 9 8 7 6 2 10 12 5 8 8 7 5 2 4
5 7 8 9 11 14 17 18 20 21 18 6 6 7 6 9 8 9 15 14 15 4 8 8 8 7 7 2 1 1 5 4 5 7 6 5 7 5 10 10 10 8 5 6 3 2 3
4 5 7 9 12 13 15 17 19 21 20 6 5 6 6 11 9 12 17 13 7 6 3 8 5 4 8 7 6 5 4 3 6 6 7 6 5 5 6 7 11 11 6 6 4 5 5
2 4 6 8 10 12 14 16 18 19 22 7 6 6 6 7 9 19 15 6 5 8 10 3 1 2 4 4 7 8 8 10 9 5 10 10 4 5 7 6 12 12 9 7 6 4 8
1 3 6 8 9 10 13 16 18 20 21 8 3 5 5 7 5 13 11 9 10 11 9 11 5 4 2 6 9 7 9 5 7 3 5 7 5 9 9 7 4 9 8 4 3 6 8
2 0 3 5 7 10 13 15 17 20 22 12 2 4 5 7 6 8 10 10 12 12 5 2 7 3 6 7 10 9 6 4 4 6 9 10 3 8 7 5 3 11 4 5 8 8 8
4 2 1 5 7 9 12 14 16 18 21 19 5 8 6 6 7 4 5 6 6 3 4 9 6 3 6 5 7 6 14 3 7 6 26 5 12 1 4 2 3 2 8 9 8 8 8
Wind_Direction
258 259 267 276 283 291 298 301 309 313 311 312 308 303 303 303 305 302 300 300 303 307 307 310 319 321 326 248 263 139 168 168 195 211 246 259 252 266 300 58 290 341 15 348 89 85 100
255 257 259 272 287 297 306 306 306 306 306 305 300 301 302 304 304 298 298 296 296 302 300 306 320 317 270 271 35 136 204 179 218 206 239 262 285 347 295 351 21 53 82 343 84 96 83
242 241 242 255 274 289 289 293 306 309 301 303 305 305 305 305 302 294 292 290 292 296 294 302 318 305 271 262 332 141 201 209 220 215 253 248 318 309 307 340 35 36 42 353 12 111 155
221 227 224 243 263 276 295 309 313 304 309 312 307 309 310 309 300 294 293 290 288 289 293 293 308 284 268 132 318 201 198 207 222 236 270 308 328 300 293 7 45 56 72 163 266 119 144
183 193 201 230 306 316 312 311 310 310 313 311 310 311 312 308 303 296 294 284 283 286 271 279 269 229 281 139 215 212 208 208 210 242 257 277 293 281 278 69 340 223 123 268 214 124 148
160 169 174 157 339 328 322 323 320 323 322 321 320 319 313 308 305 301 292 265 280 300 218 242 260 273 254 223 138 179 208 234 204 233 248 240 241 241 72 247 245 217 145 210 102 172 94
142 136 126 57 10 353 334 327 326 324 319 315 313 310 303 301 300 306 311 242 213 190 227 241 240 249 160 90 142 219 188 228 220 227 238 214 235 266 191 222 256 51 64 41 342 69 132
123 109 68 38 14 355 339 335 331 321 315 312 312 310 310 308 307 312 284 267 32 322 297 227 258 282 286 240 181 199 174 204 219 234 227 251 272 316 24 325 21 12 90 132 244 315 102
112 98 67 39 20 359 346 337 330 322 318 315 311 311 313 306 316 269 246 290 332 320 267 218 206 237 195 201 206 180 190 217 205 237 252 243 249 29 296 44 60 354 323 339 299 99 61
91 83 59 38 17 3 350 339 333 326 325 321 315 312 309 310 291 261 236 266 283 354 274 153 189 241 187 210 227 184 200 219 227 243 257 47 229 285 311 352 13 349 18 342 29 62 52
84 60 47 30 13 3 351 338 335 329 326 324 319 308 295 234 319 261 23 313 3 234 266 144 168 217 201 204 176 186 205 261 268 259 323 357 126 44 56 244 343 358 4 65 88 93 125
80 63 35 23 11 359 351 339 339 335 334 332 321 304 289 202 236 261 305 323 242 235 219 161 142 179 190 210 208 181 227 246 284 300 168 258 56 96 162 320 29 341 76 284 53 173 159
67 62 42 17 9 357 349 340 342 337 336 334 326 307 230 313 299 354 313 255 224 251 131 151 160 176 207 197 233 169 203 226 251 244 221 171 203 81 296 324 31 318 306 306 217 221 290
60 51 36 22 5 0 348 344 342 339 339 335 319 304 220 252 296 295 288 242 254 244 181 138 167 170 197 200 221 180 204 226 227 248 301 144 19 346 99 16 349 298 336 356 336 320 69
59 37 25 21 8 359 353 350 344 341 343 337 316 210 242 232 224 273 261 225 228 321 58 212 199 183 191 187 225 190 221 227 204 241 202 16 214 153 25 334 358 342 335 339 292 297 105
54 31 20 15 11 3 357 352 345 344 344 343 303 282 248 155 168 224 245 254 289 61 13 315 227 205 189 175 210 205 214 229 223 238 16 155 199 217 126 279 164 282 337 339 336 327 343
54 28 14 11 9 4 357 351 346 343 338 336 255 236 116 145 176 226 232 236 234 110 147 265 255 226 201 172 211 205 210 201 16 90 258 323 2 125 253 9 348 322 336 9 323 329 324
50 32 9 5 5 4 356 351 351 347 335 209 276 262 135 164 203 224 235 240 300 72 159 247 299 286 232 206 214 247 238 191 146 287 236 22 2 330 43 357 347 358 14 30 358 350 3
49 30 9 5 1 5 355 352 352 352 357 313 264 230 157 201 215 212 239 264 161 238 230 193 234 281 183 283 220 270 96 34 101 218 26 30 231 264 16 1 283 291 71 227 59 285 349
53 30 9 7 3 4 353 352 352 349 345 280 272 208 140 214 254 306 258 243 204 217 291 299 219 265 306 263 228 294 117 104 144 131 343 310 301 294 169 245 357 247 174 201 181 276 344
61 34 12 15 8 1 354 357 352 348 333 265 247 253 152 191 217 243 256 229 226 208 200 212 226 221 214 241 227 247 112 125 159 90 202 274 263 268 283 6 310 312 316 35 3 351 343
67 39 22 14 9 358 359 360 356 348 337 246 296 350 337 250 214 228 236 242 221 225 181 192 242 201 227 222 247 241 170 164 174 175 209 205 268 292 317 271 250 293 290 158 264 16 320
73 51 29 17 8 4 3 4 1 357 338 310 13 318 269 267 203 226 231 243 236 245 144 299 206 264 201 219 233 263 291 164 180 166 213 181 253 294 274 347 302 285 356 128 102 222 62
82 56 36 19 13 9 3 4 2 0 7 312 12 300 289 266 231 226 236 202 230 159 280 191 237 285 16 144 216 39 37 69 147 180 200 207 227 255 276 219 278 107 90 74 28 52 100
93 59 43 29 20 11 3 2 2 357 356 299 13 334 304 289 285 224 239 206 199 108 275 274 161 340 315 224 162 131 166 176 212 181 186 238 213 245 321 279 292 156 119 130 112 84 87
113 66 53 39 24 13 3 3 2 358 352 299 63 340 277 295 23 334 324 194 221 222 201 211 76 85 334 260 201 195 203 200 188 205 209 198 224 274 274 315 289 134 117 119 135 148 87
172 58 54 44 27 12 9 3 0 357 354 322 32 34 279 278 351 341 15 351 329 304 278 156 163 202 238 241 230 211 221 74 22 291 201 206 209 238 245 248 49 100 133 169 246 88 80
207 107 61 52 32 19 10 4 359 356 354 348 11 42 347 309 44 3 358 7 344 3 23 72 156 205 192 246 254 197 129 101 175 108 330 273 261 222 233 254 180 193 171 326 122 115 114
203 224 327 47 35 22 10 2 358 357 354 342 322 359 333 261 12 9 29 22 359 14 310 300 323 267 10 229 252 87 344 62 214 194 199 145 214 64 77 250 302 118 99 129 145 139 129